Flag for Germany Past Weather in Biberach an der Riss, Baden-Württemberg, Germany — Yesterday and Last 2 Weeks

Now
55 °F

Rain. Partly sunny.


Feels Like: 53 °F
Forecast: 51 / 64 °F
Wind: 8 mph from South

Location: Laupheim Airport

Current Time: May 31, 2016 at 9:56:23 PM

Latest Report: May 31, 2016 at 9:20 PM


Visibility: 6 mi

Pressure: 29.92 "Hg (28.06 "Hg at 536m altitude)

Humidity: 94%

Dew Point: 54 °F

Location of Biberach an der RissLocation

Past Weather in Biberach an der Riss — Graph

°F

Biberach an der Riss Temperature Yesterday

Maximum temperature yesterday: 64 °F (at 3:20 PM)
Minimum temperature yesterday: 55 °F (at 1:20 AM)
Average temperature yesterday: 59 °F

High & Low Weather Summary for the Past Weeks

 TemperatureHumidityPressure
High81 °F (May 22, 2:20 PM)100% (May 20, 4:59 AM)30.18 "Hg (May 20, 4:59 AM)
Low41 °F (May 16, 11:20 PM)30% (May 22, 5:20 PM)29.62 "Hg (May 29, 4:20 PM)
Average56 °F77%29.94 "Hg
* Reported May 16 8:20 PM — May 31 8:20 PM, Biberach an der Riss, Weather by CustomWeather, © 2016

Note: Actual official high and low records may vary slightly from our data, if they occured in-between our weather recording intervals... More about our weather records

Advertising

Biberach an der Riss Weather History for the Previous 24 Hours

Scroll right to see more
 ConditionsComfort  
Time TempWeatherWind HumidityBarometerVisibility
8:20 PM
Tue, May 31
55 °FThunderstorms. Partly sunny.3 mph94%29.92 "Hg5 mi
7:20 PM55 °FThunderstorms. Broken clouds.7 mph88%29.89 "HgN/A
6:20 PM64 °FBroken clouds.5 mph64%29.86 "HgN/A
5:20 PM68 °FPartly sunny.5 mph53%29.86 "HgN/A
4:20 PM70 °FPartly sunny.3 mph46%29.86 "HgN/A
3:20 PM66 °FBroken clouds.5 mph52%29.89 "HgN/A
2:20 PM66 °FBroken clouds.6 mph52%29.89 "HgN/A
1:20 PM64 °FBroken clouds.7 mph56%29.89 "HgN/A
12:20 PM63 °FBroken clouds.7 mph64%29.89 "HgN/A
11:20 AM61 °FPartly sunny.9 mph68%29.89 "HgN/A
10:20 AM59 °FPartly sunny.9 mph72%29.89 "HgN/A
9:20 AM59 °FPartly sunny.8 mph72%29.89 "HgN/A
8:20 AM57 °FPartly sunny.6 mph77%29.86 "HgN/A
7:20 AM55 °FPassing clouds.5 mph82%29.86 "HgN/A
6:20 AM52 °FPassing clouds.5 mph88%29.83 "HgN/A
5:20 AM52 °FPassing clouds.5 mph88%29.83 "HgN/A
4:20 AM52 °FPassing clouds.3 mph88%29.83 "HgN/A
3:20 AM52 °FPassing clouds.6 mph88%29.83 "HgN/A
2:20 AM54 °FPassing clouds.6 mph82%29.83 "HgN/A
1:20 AM54 °FPassing clouds.6 mph82%29.83 "HgN/A
12:20 AM55 °FPassing clouds.6 mph77%29.83 "HgN/A
11:20 PM
Mon, May 30
57 °FPassing clouds.3 mph77%29.83 "HgN/A
10:20 PM59 °FPassing clouds.6 mph72%29.83 "HgN/A
9:20 PM59 °FPartly sunny.8 mph72%29.80 "HgN/A
Weather by CustomWeather, © 2016

See weather overviewHow to use our weather pages